Location: Edinburgh
(55.9500°N, 3.1600°W)
Time: 00:01:35
(UTC+00:00)

Envisat - Pass Details

Date: 21 February 2019
Orbit: 764 x 766 km, 98.2° (Epoch: 18 March)

Event Time Altitude Azimuth Distance (km) Brightness Sun altitude
Rises 19:56:50 0° 205° (SSW) 3,226 6.4 -21.2°
Reaches altitude 10° 19:59:36 10° 220° (SW) 2,304 5.8 -21.6°
Maximum altitude 20:03:34 23° 271° (W) 1,612 5.5 -22.1°
Drops below altitude 10° 20:07:33 10° 323° (NW) 2,317 6.2 -22.7°
Sets 20:10:22 0° 338° (NNW) 3,248 6.8 -23.1°
